Time,TemperatureF,DewpointF,PressureIn,WindDirection,WindDirectionDegrees,WindSpeedMPH,WindSpeedGustMPH,Humidity,HourlyPrecipIn,Conditions,Clouds,dailyrainin,SoftwareType,DateUTC
2013-01-14 00:00:00,65.4,55.4,30.10,SE,141,0.0,0.0,70,0.00,,,0.00,VWS V14.01,2013-01-14 05:00:00,
2013-01-14 00:07:00,64.9,54.9,30.10,SE,141,0.0,0.0,70,0.00,,,0.00,VWS V14.01,2013-01-14 05:07:00,
2013-01-14 00:10:00,64.9,54.9,30.10,SE,141,0.0,0.0,70,0.00,,,0.00,VWS V14.01,2013-01-14 05:10:00,
2013-01-14 00:17:00,64.5,54.5,30.10,SE,141,0.0,2.0,70,0.00,,,0.00,VWS V14.01,2013-01-14 05:17:00,
2013-01-14 00:20:00,64.5,54.5,30.10,SE,141,0.0,2.0,70,0.00,,,0.00,VWS V14.01,2013-01-14 05:20:00,
2013-01-14 00:27:00,64.2,54.6,30.11,SE,141,0.0,0.0,71,0.00,,,0.00,VWS V14.01,2013-01-14 05:27:00,
2013-01-14 00:30:00,64.2,54.6,30.11,SE,141,0.0,0.0,71,0.00,,,0.00,VWS V14.01,2013-01-14 05:30:00,
2013-01-14 00:37:00,63.9,54.3,30.11,SE,141,0.0,0.0,71,0.00,,,0.00,VWS V14.01,2013-01-14 05:37:00,
2013-01-14 00:40:00,63.9,54.3,30.11,SE,141,0.0,0.0,71,0.00,,,0.00,VWS V14.01,2013-01-14 05:40:00,
2013-01-14 00:47:00,63.6,54.0,30.11,SE,141,0.0,0.0,71,0.00,,,0.00,VWS V14.01,2013-01-14 05:47:00,
2013-01-14 00:50:00,63.6,54.0,30.11,SE,141,0.0,0.0,71,0.00,,,0.00,VWS V14.01,2013-01-14 05:50:00,
2013-01-14 00:57:00,63.2,54.0,30.11,SE,141,0.0,0.0,72,0.00,,,0.00,VWS V14.01,2013-01-14 05:57:00,
2013-01-14 01:00:00,63.2,54.0,30.11,SE,141,0.0,0.0,72,0.00,,,0.00,VWS V14.01,2013-01-14 06:00:00,
2013-01-14 01:08:00,62.8,53.7,30.11,SE,141,0.0,0.0,72,0.00,,,0.00,VWS V14.01,2013-01-14 06:08:00,
2013-01-14 01:10:00,62.8,53.7,30.11,SE,141,0.0,0.0,72,0.00,,,0.00,VWS V14.01,2013-01-14 06:10:00,
2013-01-14 01:17:00,62.5,53.4,30.11,SE,141,2.0,2.0,72,0.00,,,0.00,VWS V14.01,2013-01-14 06:17:00,
2013-01-14 01:20:00,62.5,53.4,30.11,SE,141,2.0,2.0,72,0.00,,,0.00,VWS V14.01,2013-01-14 06:20:00,
2013-01-14 01:27:00,62.6,53.5,30.11,SE,141,0.0,2.0,72,0.00,,,0.00,VWS V14.01,2013-01-14 06:27:00,
2013-01-14 01:30:00,62.6,53.5,30.11,SE,141,0.0,2.0,72,0.00,,,0.00,VWS V14.01,2013-01-14 06:30:00,
2013-01-14 01:40:00,62.9,53.8,30.11,SE,141,0.0,1.0,72,0.00,,,0.00,VWS V14.01,2013-01-14 06:40:00,
2013-01-14 01:47:00,63.0,54.2,30.11,SE,141,0.0,1.0,73,0.00,,,0.00,VWS V14.01,2013-01-14 06:47:00,
2013-01-14 01:50:00,63.0,54.2,30.11,SE,141,0.0,1.0,73,0.00,,,0.00,VWS V14.01,2013-01-14 06:50:00,
2013-01-14 01:57:00,63.7,54.9,30.11,SE,141,0.0,1.0,73,0.00,,,0.00,VWS V14.01,2013-01-14 06:57:00,
2013-01-14 02:00:00,63.7,54.9,30.11,SE,141,0.0,1.0,73,0.00,,,0.00,VWS V14.01,2013-01-14 07:00:00,
2013-01-14 02:07:00,63.6,54.8,30.12,SE,141,0.0,2.0,73,0.00,,,0.00,VWS V14.01,2013-01-14 07:07:00,
2013-01-14 02:10:00,63.6,54.8,30.12,SE,141,0.0,2.0,73,0.00,,,0.00,VWS V14.01,2013-01-14 07:10:00,
2013-01-14 02:17:00,63.1,54.3,30.12,SE,141,0.0,0.0,73,0.00,,,0.00,VWS V14.01,2013-01-14 07:17:00,
2013-01-14 02:20:00,63.1,54.3,30.12,SE,141,0.0,0.0,73,0.00,,,0.00,VWS V14.01,2013-01-14 07:20:00,
2013-01-14 02:27:00,62.8,54.0,30.12,SE,141,0.0,0.0,73,0.00,,,0.00,VWS V14.01,2013-01-14 07:27:00,
2013-01-14 02:30:00,62.8,54.0,30.12,SE,141,0.0,0.0,73,0.00,,,0.00,VWS V14.01,2013-01-14 07:30:00,
2013-01-14 02:37:00,62.3,53.5,30.12,SE,141,0.0,0.0,73,0.00,,,0.00,VWS V14.01,2013-01-14 07:37:00,
2013-01-14 02:40:00,62.3,53.5,30.12,SE,141,0.0,0.0,73,0.00,,,0.00,VWS V14.01,2013-01-14 07:40:00,
2013-01-14 02:47:00,62.1,53.3,30.12,SE,141,0.0,0.0,73,0.00,,,0.00,VWS V14.01,2013-01-14 07:47:00,
2013-01-14 02:50:00,62.1,53.3,30.12,SE,141,0.0,0.0,73,0.00,,,0.00,VWS V14.01,2013-01-14 07:50:00,
2013-01-14 02:57:00,62.1,53.3,30.12,SE,141,0.0,1.0,73,0.00,,,0.00,VWS V14.01,2013-01-14 07:57:00,
2013-01-14 03:00:00,62.1,53.3,30.12,SE,141,0.0,1.0,73,0.00,,,0.00,VWS V14.01,2013-01-14 08:00:00,
2013-01-14 03:07:00,61.6,53.2,30.12,SE,141,0.0,0.0,74,0.00,,,0.00,VWS V14.01,2013-01-14 08:07:00,
2013-01-14 03:10:00,61.6,53.2,30.12,SE,141,0.0,0.0,74,0.00,,,0.00,VWS V14.01,2013-01-14 08:10:00,
2013-01-14 03:18:00,61.4,53.0,30.12,SE,141,0.0,0.0,74,0.00,,,0.00,VWS V14.01,2013-01-14 08:18:00,
2013-01-14 03:20:00,61.4,53.0,30.12,SE,141,0.0,0.0,74,0.00,,,0.00,VWS V14.01,2013-01-14 08:20:00,
2013-01-14 03:27:00,61.4,53.0,30.12,SE,141,0.0,0.0,74,0.00,,,0.00,VWS V14.01,2013-01-14 08:27:00,
2013-01-14 03:30:00,61.4,53.0,30.12,SE,141,0.0,0.0,74,0.00,,,0.00,VWS V14.01,2013-01-14 08:30:00,
2013-01-14 03:37:00,61.4,53.0,30.12,SE,141,0.0,0.0,74,0.00,,,0.00,VWS V14.01,2013-01-14 08:37:00,
2013-01-14 03:40:00,61.4,53.0,30.12,SE,141,0.0,0.0,74,0.00,,,0.00,VWS V14.01,2013-01-14 08:40:00,
2013-01-14 03:47:00,61.5,53.2,30.11,SE,141,0.0,1.0,74,0.00,,,0.00,VWS V14.01,2013-01-14 08:47:00,
2013-01-14 03:50:00,61.5,53.2,30.11,SE,141,0.0,1.0,74,0.00,,,0.00,VWS V14.01,2013-01-14 08:50:00,
2013-01-14 03:57:00,61.0,52.7,30.11,SE,141,0.0,0.0,74,0.00,,,0.00,VWS V14.01,2013-01-14 08:57:00,
2013-01-14 04:00:00,61.0,52.7,30.11,SE,141,0.0,0.0,74,0.00,,,0.00,VWS V14.01,2013-01-14 09:00:00,
2013-01-14 04:07:00,60.5,52.2,30.11,SE,141,0.0,0.0,74,0.00,,,0.00,VWS V14.01,2013-01-14 09:07:00,
2013-01-14 04:10:00,60.5,52.2,30.11,SE,141,0.0,0.0,74,0.00,,,0.00,VWS V14.01,2013-01-14 09:10:00,
2013-01-14 04:17:00,60.5,52.2,30.11,SE,141,0.0,0.0,74,0.00,,,0.00,VWS V14.01,2013-01-14 09:17:00,
2013-01-14 04:20:00,60.5,52.2,30.11,SE,141,0.0,0.0,74,0.00,,,0.00,VWS V14.01,2013-01-14 09:20:00,
2013-01-14 04:27:00,60.4,52.1,30.11,SE,141,0.0,0.0,74,0.00,,,0.00,VWS V14.01,2013-01-14 09:27:00,
2013-01-14 04:30:00,60.4,52.1,30.11,SE,141,0.0,0.0,74,0.00,,,0.00,VWS V14.01,2013-01-14 09:30:00,
2013-01-14 04:37:00,60.5,52.2,30.11,SE,141,0.0,0.0,74,0.00,,,0.00,VWS V14.01,2013-01-14 09:37:00,
2013-01-14 04:40:00,60.5,52.2,30.11,SE,141,0.0,0.0,74,0.00,,,0.00,VWS V14.01,2013-01-14 09:40:00,
2013-01-14 04:47:00,60.8,52.5,30.11,SE,141,0.0,0.0,74,0.00,,,0.00,VWS V14.01,2013-01-14 09:47:00,
2013-01-14 04:50:00,60.8,52.5,30.11,SE,141,0.0,0.0,74,0.00,,,0.00,VWS V14.01,2013-01-14 09:50:00,
2013-01-14 04:57:00,61.3,53.0,30.11,SE,141,0.0,0.0,74,0.00,,,0.00,VWS V14.01,2013-01-14 09:57:00,
2013-01-14 05:00:00,61.3,53.0,30.11,SE,141,0.0,0.0,74,0.00,,,0.00,VWS V14.01,2013-01-14 10:00:00,
2013-01-14 05:07:00,61.1,52.8,30.11,SE,141,0.0,0.0,74,0.00,,,0.00,VWS V14.01,2013-01-14 10:07:00,
2013-01-14 05:10:00,61.1,52.8,30.11,SE,141,0.0,0.0,74,0.00,,,0.00,VWS V14.01,2013-01-14 10:10:00,
2013-01-14 05:17:00,61.2,53.2,30.10,SE,141,0.0,0.0,75,0.00,,,0.00,VWS V14.01,2013-01-14 10:17:00,
2013-01-14 05:20:00,61.2,53.2,30.10,SE,141,0.0,0.0,75,0.00,,,0.00,VWS V14.01,2013-01-14 10:20:00,
2013-01-14 05:27:00,61.3,53.0,30.10,SE,141,0.0,0.0,74,0.00,,,0.00,VWS V14.01,2013-01-14 10:27:00,
2013-01-14 05:30:00,61.3,53.0,30.10,SE,141,0.0,0.0,74,0.00,,,0.00,VWS V14.01,2013-01-14 10:30:00,
2013-01-14 05:37:00,60.8,52.8,30.10,SE,141,0.0,0.0,75,0.00,,,0.00,VWS V14.01,2013-01-14 10:37:00,
2013-01-14 05:40:00,60.8,52.8,30.10,SE,141,0.0,0.0,75,0.00,,,0.00,VWS V14.01,2013-01-14 10:40:00,
2013-01-14 05:47:00,60.6,52.6,30.10,SE,141,0.0,4.0,75,0.00,,,0.00,VWS V14.01,2013-01-14 10:47:00,
2013-01-14 05:50:00,60.6,52.6,30.10,SE,141,0.0,4.0,75,0.00,,,0.00,VWS V14.01,2013-01-14 10:50:00,
2013-01-14 05:57:00,61.1,53.1,30.10,SE,141,1.0,5.0,75,0.00,,,0.00,VWS V14.01,2013-01-14 10:57:00,
2013-01-14 06:00:00,61.1,53.1,30.10,SE,141,1.0,5.0,75,0.00,,,0.00,VWS V14.01,2013-01-14 11:00:00,
2013-01-14 06:07:00,61.4,53.4,30.10,SE,141,0.0,4.0,75,0.00,,,0.00,VWS V14.01,2013-01-14 11:07:00,
2013-01-14 06:10:00,61.4,53.4,30.10,SE,141,0.0,4.0,75,0.00,,,0.00,VWS V14.01,2013-01-14 11:10:00,
2013-01-14 06:17:00,61.3,53.3,30.10,SE,141,0.0,0.0,75,0.00,,,0.00,VWS V14.01,2013-01-14 11:17:00,
2013-01-14 06:20:00,61.3,53.3,30.10,SE,141,0.0,0.0,75,0.00,,,0.00,VWS V14.01,2013-01-14 11:20:00,
2013-01-14 06:27:00,61.6,53.6,30.10,SE,141,0.0,4.0,75,0.00,,,0.00,VWS V14.01,2013-01-14 11:27:00,
2013-01-14 06:30:00,61.6,53.6,30.10,SE,141,0.0,4.0,75,0.00,,,0.00,VWS V14.01,2013-01-14 11:30:00,
2013-01-14 06:37:00,61.3,53.3,30.11,SE,141,0.0,1.0,75,0.00,,,0.00,VWS V14.01,2013-01-14 11:37:00,
2013-01-14 06:40:00,61.3,53.3,30.11,SE,141,0.0,1.0,75,0.00,,,0.00,VWS V14.01,2013-01-14 11:40:00,
2013-01-14 06:47:00,60.9,52.9,30.11,SE,141,0.0,0.0,75,0.00,,,0.00,VWS V14.01,2013-01-14 11:47:00,
2013-01-14 06:50:00,60.9,52.9,30.11,SE,141,0.0,0.0,75,0.00,,,0.00,VWS V14.01,2013-01-14 11:50:00,
2013-01-14 06:57:00,60.4,52.5,30.12,SE,141,0.0,0.0,75,0.00,,,0.00,VWS V14.01,2013-01-14 11:57:00,
2013-01-14 07:00:00,60.4,52.5,30.12,SE,141,0.0,0.0,75,0.00,,,0.00,VWS V14.01,2013-01-14 12:00:00,
2013-01-14 07:07:00,59.9,52.0,30.12,SE,141,0.0,0.0,75,0.00,,,0.00,VWS V14.01,2013-01-14 12:07:00,
2013-01-14 07:10:00,59.9,52.0,30.12,SE,141,0.0,0.0,75,0.00,,,0.00,VWS V14.01,2013-01-14 12:10:00,
2013-01-14 07:17:00,59.2,51.3,30.12,SE,141,0.0,0.0,75,0.00,,,0.00,VWS V14.01,2013-01-14 12:17:00,
2013-01-14 07:20:00,59.2,51.3,30.12,SE,141,0.0,0.0,75,0.00,,,0.00,VWS V14.01,2013-01-14 12:20:00,
2013-01-14 07:27:00,58.7,50.8,30.12,SE,141,0.0,0.0,75,0.00,,,0.00,VWS V14.01,2013-01-14 12:27:00,
2013-01-14 07:30:00,58.7,50.8,30.12,SE,141,0.0,0.0,75,0.00,,,0.00,VWS V14.01,2013-01-14 12:30:00,
2013-01-14 07:37:00,58.5,50.6,30.12,SE,141,0.0,0.0,75,0.00,,,0.00,VWS V14.01,2013-01-14 12:37:00,
2013-01-14 07:40:00,58.5,50.6,30.12,SE,141,0.0,0.0,75,0.00,,,0.00,VWS V14.01,2013-01-14 12:40:00,
2013-01-14 07:47:00,58.4,50.5,30.13,SE,141,0.0,0.0,75,0.00,,,0.00,VWS V14.01,2013-01-14 12:47:00,
2013-01-14 07:50:00,58.4,50.5,30.13,SE,141,0.0,0.0,75,0.00,,,0.00,VWS V14.01,2013-01-14 12:50:00,
2013-01-14 07:57:00,58.6,50.7,30.13,SE,141,0.0,0.0,75,0.00,,,0.00,VWS V14.01,2013-01-14 12:57:00,
2013-01-14 08:00:00,58.6,50.7,30.13,SE,141,0.0,0.0,75,0.00,,,0.00,VWS V14.01,2013-01-14 13:00:00,
2013-01-14 08:07:00,59.6,51.7,30.13,SE,141,0.0,0.0,75,0.00,,,0.00,VWS V14.01,2013-01-14 13:07:00,
2013-01-14 08:10:00,59.6,51.7,30.13,SE,141,0.0,0.0,75,0.00,,,0.00,VWS V14.01,2013-01-14 13:10:00,
2013-01-14 08:17:00,60.4,52.5,30.13,SE,141,0.0,0.0,75,0.00,,,0.00,VWS V14.01,2013-01-14 13:17:00,
2013-01-14 08:20:00,60.4,52.5,30.13,SE,141,0.0,0.0,75,0.00,,,0.00,VWS V14.01,2013-01-14 13:20:00,
2013-01-14 08:27:00,62.7,54.7,30.14,SE,141,0.0,0.0,75,0.00,,,0.00,VWS V14.01,2013-01-14 13:27:00,
2013-01-14 08:30:00,62.7,54.7,30.14,SE,141,0.0,0.0,75,0.00,,,0.00,VWS V14.01,2013-01-14 13:30:00,
2013-01-14 08:37:00,65.1,57.0,30.14,SE,141,0.0,2.0,75,0.00,,,0.00,VWS V14.01,2013-01-14 13:37:00,
2013-01-14 08:40:00,65.1,57.0,30.14,SE,141,0.0,2.0,75,0.00,,,0.00,VWS V14.01,2013-01-14 13:40:00,
2013-01-14 08:47:00,65.4,57.3,30.15,SE,141,1.0,4.0,75,0.00,,,0.00,VWS V14.01,2013-01-14 13:47:00,
2013-01-14 08:50:00,65.4,57.3,30.15,SE,141,1.0,4.0,75,0.00,,,0.00,VWS V14.01,2013-01-14 13:50:00,
2013-01-14 08:57:00,65.9,57.8,30.15,SE,141,1.0,5.0,75,0.00,,,0.00,VWS V14.01,2013-01-14 13:57:00,
2013-01-14 09:00:00,65.9,57.8,30.15,SE,141,1.0,5.0,75,0.00,,,0.00,VWS V14.01,2013-01-14 14:00:00,
2013-01-14 09:07:00,66.8,58.6,30.15,SE,141,6.0,8.0,75,0.00,,,0.00,VWS V14.01,2013-01-14 14:07:00,
2013-01-14 09:10:00,66.8,58.6,30.15,SE,141,6.0,8.0,75,0.00,,,0.00,VWS V14.01,2013-01-14 14:10:00,
2013-01-14 09:17:00,67.6,59.0,30.16,SE,141,0.0,6.0,74,0.00,,,0.00,VWS V14.01,2013-01-14 14:17:00,
2013-01-14 09:20:00,67.6,59.0,30.16,SE,141,0.0,6.0,74,0.00,,,0.00,VWS V14.01,2013-01-14 14:20:00,
2013-01-14 09:27:00,69.4,60.4,30.16,SE,141,2.0,5.0,73,0.00,,,0.00,VWS V14.01,2013-01-14 14:27:00,
2013-01-14 09:30:00,69.4,60.4,30.16,SE,141,2.0,5.0,73,0.00,,,0.00,VWS V14.01,2013-01-14 14:30:00,
2013-01-14 09:37:00,70.7,60.5,30.17,SE,141,4.0,7.0,70,0.00,,,0.00,VWS V14.01,2013-01-14 14:37:00,
2013-01-14 09:40:00,70.7,60.5,30.17,SE,141,4.0,7.0,70,0.00,,,0.00,VWS V14.01,2013-01-14 14:40:00,
2013-01-14 09:48:00,72.3,59.9,30.16,SE,136,11.0,11.0,65,0.00,,,0.00,VWS V14.01,2013-01-14 14:48:00,
2013-01-14 09:50:00,72.3,59.9,30.16,SE,136,11.0,11.0,65,0.00,,,0.00,VWS V14.01,2013-01-14 14:50:00,
2013-01-14 09:57:00,73.1,59.3,30.16,SSE,163,8.0,13.0,62,0.00,,,0.00,VWS V14.01,2013-01-14 14:57:00,
2013-01-14 10:00:00,73.1,59.3,30.16,SSE,163,8.0,13.0,62,0.00,,,0.00,VWS V14.01,2013-01-14 15:00:00,
2013-01-14 10:07:00,73.7,59.0,30.15,SSE,155,7.0,11.0,60,0.00,,,0.00,VWS V14.01,2013-01-14 15:07:00,
2013-01-14 10:10:00,73.7,59.0,30.15,SSE,155,7.0,11.0,60,0.00,,,0.00,VWS V14.01,2013-01-14 15:10:00,
2013-01-14 10:17:00,75.1,59.8,30.14,SSE,155,9.0,13.0,59,0.00,,,0.00,VWS V14.01,2013-01-14 15:17:00,
2013-01-14 10:20:00,75.1,59.8,30.14,SSE,155,9.0,13.0,59,0.00,,,0.00,VWS V14.01,2013-01-14 15:20:00,
2013-01-14 10:27:00,75.5,58.7,30.15,SSE,152,4.0,11.0,56,0.00,,,0.00,VWS V14.01,2013-01-14 15:27:00,
2013-01-14 10:30:00,75.5,58.7,30.15,SSE,152,4.0,11.0,56,0.00,,,0.00,VWS V14.01,2013-01-14 15:30:00,
2013-01-14 10:37:00,75.9,58.1,30.15,ESE,123,6.0,11.0,54,0.00,,,0.00,VWS V14.01,2013-01-14 15:37:00,
2013-01-14 10:40:00,75.9,58.1,30.15,ESE,123,6.0,11.0,54,0.00,,,0.00,VWS V14.01,2013-01-14 15:40:00,
2013-01-14 10:47:00,77.5,59.6,30.15,SE,138,9.0,10.0,54,0.00,,,0.00,VWS V14.01,2013-01-14 15:47:00,
2013-01-14 10:50:00,77.5,59.6,30.15,SE,138,9.0,10.0,54,0.00,,,0.00,VWS V14.01,2013-01-14 15:50:00,
2013-01-14 10:57:00,77.4,59.5,30.14,South,179,6.0,11.0,54,0.00,,,0.00,VWS V14.01,2013-01-14 15:57:00,
2013-01-14 11:00:00,77.4,59.5,30.14,South,179,6.0,11.0,54,0.00,,,0.00,VWS V14.01,2013-01-14 16:00:00,
2013-01-14 11:07:00,77.5,59.6,30.14,South,175,7.0,11.0,54,0.00,,,0.00,VWS V14.01,2013-01-14 16:07:00,
2013-01-14 11:10:00,77.5,59.6,30.14,South,175,7.0,11.0,54,0.00,,,0.00,VWS V14.01,2013-01-14 16:10:00,
2013-01-14 11:17:00,76.6,58.7,30.13,SSE,165,7.0,14.0,54,0.00,,,0.00,VWS V14.01,2013-01-14 16:17:00,
2013-01-14 11:20:00,76.6,58.7,30.13,SSE,165,7.0,14.0,54,0.00,,,0.00,VWS V14.01,2013-01-14 16:20:00,
2013-01-14 11:27:00,77.0,59.1,30.13,SE,136,10.0,14.0,54,0.00,,,0.00,VWS V14.01,2013-01-14 16:27:00,
2013-01-14 11:30:00,77.0,59.1,30.13,SE,136,10.0,14.0,54,0.00,,,0.00,VWS V14.01,2013-01-14 16:30:00,
2013-01-14 11:37:00,79.3,61.2,30.13,SSE,156,9.0,18.0,54,0.00,,,0.00,VWS V14.01,2013-01-14 16:37:00,
2013-01-14 11:40:00,79.3,61.2,30.13,SSE,156,9.0,18.0,54,0.00,,,0.00,VWS V14.01,2013-01-14 16:40:00,
2013-01-14 11:47:00,79.1,61.0,30.12,SSE,153,16.0,19.0,54,0.00,,,0.00,VWS V14.01,2013-01-14 16:47:00,
2013-01-14 11:50:00,79.1,61.0,30.12,SSE,153,16.0,19.0,54,0.00,,,0.00,VWS V14.01,2013-01-14 16:50:00,
2013-01-14 11:57:00,77.2,59.8,30.13,SE,143,9.0,16.0,55,0.00,,,0.00,VWS V14.01,2013-01-14 16:57:00,
2013-01-14 12:00:00,77.2,59.8,30.13,SE,143,9.0,16.0,55,0.00,,,0.00,VWS V14.01,2013-01-14 17:00:00,
2013-01-14 12:07:00,79.3,61.2,30.12,South,173,7.0,16.0,54,0.00,,,0.00,VWS V14.01,2013-01-14 17:07:00,
2013-01-14 12:10:00,79.3,61.2,30.12,South,173,7.0,16.0,54,0.00,,,0.00,VWS V14.01,2013-01-14 17:10:00,
2013-01-14 12:17:00,77.8,60.4,30.12,SSE,157,10.0,13.0,55,0.00,,,0.00,VWS V14.01,2013-01-14 17:17:00,
2013-01-14 12:20:00,77.8,60.4,30.12,SSE,157,10.0,13.0,55,0.00,,,0.00,VWS V14.01,2013-01-14 17:20:00,
2013-01-14 12:28:00,78.4,60.4,30.12,SSE,149,6.0,17.0,54,0.00,,,0.00,VWS V14.01,2013-01-14 17:28:00,
2013-01-14 12:30:00,78.4,60.4,30.12,SSE,149,6.0,17.0,54,0.00,,,0.00,VWS V14.01,2013-01-14 17:30:00,
2013-01-14 12:38:00,78.0,60.5,30.11,SSE,165,5.0,15.0,55,0.00,,,0.00,VWS V14.01,2013-01-14 17:38:00,
2013-01-14 12:40:00,78.0,60.5,30.11,SSE,165,5.0,15.0,55,0.00,,,0.00,VWS V14.01,2013-01-14 17:40:00,
2013-01-14 12:47:00,79.0,61.0,30.11,SSW,202,3.0,11.0,54,0.00,,,0.00,VWS V14.01,2013-01-14 17:47:00,
2013-01-14 12:50:00,79.0,61.0,30.11,SSW,202,3.0,11.0,54,0.00,,,0.00,VWS V14.01,2013-01-14 17:50:00,
2013-01-14 12:57:00,79.2,61.1,30.10,South,184,2.0,11.0,54,0.00,,,0.00,VWS V14.01,2013-01-14 17:57:00,
2013-01-14 13:00:00,79.2,61.1,30.10,South,184,2.0,11.0,54,0.00,,,0.00,VWS V14.01,2013-01-14 18:00:00,
2013-01-14 13:07:00,77.9,60.5,30.10,South,175,4.0,10.0,55,0.00,,,0.00,VWS V14.01,2013-01-14 18:07:00,
2013-01-14 13:10:00,77.9,60.5,30.10,South,175,4.0,10.0,55,0.00,,,0.00,VWS V14.01,2013-01-14 18:10:00,
2013-01-14 13:17:00,78.2,60.7,30.10,South,172,1.0,10.0,55,0.00,,,0.00,VWS V14.01,2013-01-14 18:17:00,
2013-01-14 13:20:00,78.2,60.7,30.10,South,172,1.0,10.0,55,0.00,,,0.00,VWS V14.01,2013-01-14 18:20:00,
2013-01-14 13:27:00,78.3,60.8,30.10,South,175,8.0,11.0,55,0.00,,,0.00,VWS V14.01,2013-01-14 18:27:00,
2013-01-14 13:30:00,78.3,60.8,30.10,South,175,8.0,11.0,55,0.00,,,0.00,VWS V14.01,2013-01-14 18:30:00,
2013-01-14 13:37:00,79.1,61.0,30.10,SSE,160,5.0,13.0,54,0.00,,,0.00,VWS V14.01,2013-01-14 18:37:00,
2013-01-14 13:40:00,79.1,61.0,30.10,SSE,160,5.0,13.0,54,0.00,,,0.00,VWS V14.01,2013-01-14 18:40:00,
2013-01-14 13:47:00,78.7,61.2,30.09,South,173,4.0,12.0,55,0.00,,,0.00,VWS V14.01,2013-01-14 18:47:00,
2013-01-14 13:50:00,78.7,61.2,30.09,South,173,4.0,12.0,55,0.00,,,0.00,VWS V14.01,2013-01-14 18:50:00,
2013-01-14 13:57:00,78.6,61.1,30.09,South,175,7.0,10.0,55,0.00,,,0.00,VWS V14.01,2013-01-14 18:57:00,
2013-01-14 14:00:00,78.6,61.1,30.09,South,175,7.0,10.0,55,0.00,,,0.00,VWS V14.01,2013-01-14 19:00:00,
2013-01-14 14:07:00,78.6,60.6,30.09,SSW,202,5.0,12.0,54,0.00,,,0.00,VWS V14.01,2013-01-14 19:07:00,
2013-01-14 14:10:00,78.6,60.6,30.09,SSW,202,5.0,12.0,54,0.00,,,0.00,VWS V14.01,2013-01-14 19:10:00,
2013-01-14 14:17:00,79.1,61.6,30.09,South,186,3.0,8.0,55,0.00,,,0.00,VWS V14.01,2013-01-14 19:17:00,
2013-01-14 14:20:00,79.1,61.6,30.09,South,186,3.0,8.0,55,0.00,,,0.00,VWS V14.01,2013-01-14 19:20:00,
2013-01-14 14:27:00,80.6,62.4,30.09,SW,217,7.0,8.0,54,0.00,,,0.00,VWS V14.01,2013-01-14 19:27:00,
2013-01-14 14:30:00,80.6,62.4,30.09,SW,217,7.0,8.0,54,0.00,,,0.00,VWS V14.01,2013-01-14 19:30:00,
2013-01-14 14:38:00,81.1,62.9,30.09,SE,136,8.0,14.0,54,0.00,,,0.00,VWS V14.01,2013-01-14 19:38:00,
2013-01-14 14:40:00,81.1,62.9,30.09,SE,136,8.0,14.0,54,0.00,,,0.00,VWS V14.01,2013-01-14 19:40:00,
2013-01-14 14:47:00,80.8,62.6,30.09,South,173,5.0,13.0,54,0.00,,,0.00,VWS V14.01,2013-01-14 19:47:00,
2013-01-14 14:50:00,80.8,62.6,30.09,South,173,5.0,13.0,54,0.00,,,0.00,VWS V14.01,2013-01-14 19:50:00,
2013-01-14 14:57:00,80.3,62.2,30.08,SE,125,9.0,14.0,54,0.00,,,0.00,VWS V14.01,2013-01-14 19:57:00,
2013-01-14 15:00:00,80.3,62.2,30.08,SE,125,9.0,14.0,54,0.00,,,0.00,VWS V14.01,2013-01-14 20:00:00,
2013-01-14 15:07:00,79.3,61.8,30.08,SSE,157,5.0,11.0,55,0.00,,,0.00,VWS V14.01,2013-01-14 20:07:00,
2013-01-14 15:10:00,79.3,61.8,30.08,SSE,157,5.0,11.0,55,0.00,,,0.00,VWS V14.01,2013-01-14 20:10:00,
2013-01-14 15:17:00,80.8,62.6,30.08,East,88,8.0,11.0,54,0.00,,,0.00,VWS V14.01,2013-01-14 20:17:00,
2013-01-14 15:20:00,80.8,62.6,30.08,East,88,8.0,11.0,54,0.00,,,0.00,VWS V14.01,2013-01-14 20:20:00,
2013-01-14 15:27:00,79.9,61.8,30.08,SE,143,8.0,13.0,54,0.00,,,0.00,VWS V14.01,2013-01-14 20:27:00,
2013-01-14 15:30:00,79.9,61.8,30.08,SE,143,8.0,13.0,54,0.00,,,0.00,VWS V14.01,2013-01-14 20:30:00,
2013-01-14 15:37:00,79.2,61.7,30.09,SSE,147,7.0,15.0,55,0.00,,,0.00,VWS V14.01,2013-01-14 20:37:00,
2013-01-14 15:40:00,79.2,61.7,30.09,SSE,147,7.0,15.0,55,0.00,,,0.00,VWS V14.01,2013-01-14 20:40:00,
2013-01-14 15:47:00,78.5,61.0,30.09,SSE,150,5.0,11.0,55,0.00,,,0.00,VWS V14.01,2013-01-14 20:47:00,
2013-01-14 15:50:00,78.5,61.0,30.09,SSE,150,5.0,11.0,55,0.00,,,0.00,VWS V14.01,2013-01-14 20:50:00,
2013-01-14 15:57:00,79.4,61.3,30.09,SSE,164,8.0,14.0,54,0.00,,,0.00,VWS V14.01,2013-01-14 20:57:00,
2013-01-14 16:00:00,79.4,61.3,30.09,SSE,164,8.0,14.0,54,0.00,,,0.00,VWS V14.01,2013-01-14 21:00:00,
2013-01-14 16:07:00,79.0,61.5,30.09,ESE,111,7.0,12.0,55,0.00,,,0.00,VWS V14.01,2013-01-14 21:07:00,
2013-01-14 16:10:00,79.0,61.5,30.09,ESE,111,7.0,12.0,55,0.00,,,0.00,VWS V14.01,2013-01-14 21:10:00,
2013-01-14 16:17:00,78.6,60.6,30.09,SE,134,4.0,8.0,54,0.00,,,0.00,VWS V14.01,2013-01-14 21:17:00,
2013-01-14 16:20:00,78.6,60.6,30.09,SE,134,4.0,8.0,54,0.00,,,0.00,VWS V14.01,2013-01-14 21:20:00,
2013-01-14 16:27:00,78.5,60.5,30.09,SE,139,4.0,13.0,54,0.00,,,0.00,VWS V14.01,2013-01-14 21:27:00,
2013-01-14 16:30:00,78.5,60.5,30.09,SE,139,4.0,13.0,54,0.00,,,0.00,VWS V14.01,2013-01-14 21:30:00,
2013-01-14 16:37:00,77.9,59.9,30.10,SE,138,4.0,11.0,54,0.00,,,0.00,VWS V14.01,2013-01-14 21:37:00,
2013-01-14 16:40:00,77.9,59.9,30.10,SE,138,4.0,11.0,54,0.00,,,0.00,VWS V14.01,2013-01-14 21:40:00,
2013-01-14 16:47:00,78.5,60.5,30.10,SSE,157,5.0,11.0,54,0.00,,,0.00,VWS V14.01,2013-01-14 21:47:00,
2013-01-14 16:50:00,78.5,60.5,30.10,SSE,157,5.0,11.0,54,0.00,,,0.00,VWS V14.01,2013-01-14 21:50:00,
2013-01-14 16:57:00,78.8,60.8,30.10,SE,146,10.0,10.0,54,0.00,,,0.00,VWS V14.01,2013-01-14 21:57:00,
2013-01-14 17:00:00,78.8,60.8,30.10,SE,146,10.0,10.0,54,0.00,,,0.00,VWS V14.01,2013-01-14 22:00:00,
2013-01-14 17:07:00,78.1,60.1,30.10,SE,136,2.0,10.0,54,0.00,,,0.00,VWS V14.01,2013-01-14 22:07:00,
2013-01-14 17:10:00,78.1,60.1,30.10,SE,136,2.0,10.0,54,0.00,,,0.00,VWS V14.01,2013-01-14 22:10:00,
2013-01-14 17:17:00,77.5,60.1,30.11,SSE,153,5.0,8.0,55,0.00,,,0.00,VWS V14.01,2013-01-14 22:17:00,
2013-01-14 17:20:00,77.5,60.1,30.11,SSE,153,5.0,8.0,55,0.00,,,0.00,VWS V14.01,2013-01-14 22:20:00,
2013-01-14 17:27:00,76.9,59.5,30.11,SE,145,6.0,8.0,55,0.00,,,0.00,VWS V14.01,2013-01-14 22:27:00,
2013-01-14 17:30:00,76.9,59.5,30.11,SE,145,6.0,8.0,55,0.00,,,0.00,VWS V14.01,2013-01-14 22:30:00,
2013-01-14 17:37:00,76.3,59.0,30.11,SE,144,7.0,7.0,55,0.00,,,0.00,VWS V14.01,2013-01-14 22:37:00,
2013-01-14 17:40:00,76.3,59.0,30.11,SE,144,7.0,7.0,55,0.00,,,0.00,VWS V14.01,2013-01-14 22:40:00,
2013-01-14 17:47:00,75.5,58.2,30.11,SE,144,2.0,7.0,55,0.00,,,0.00,VWS V14.01,2013-01-14 22:47:00,
2013-01-14 17:50:00,75.5,58.2,30.11,SE,144,2.0,7.0,55,0.00,,,0.00,VWS V14.01,2013-01-14 22:50:00,
2013-01-14 17:57:00,74.8,57.6,30.11,SE,144,2.0,6.0,55,0.00,,,0.00,VWS V14.01,2013-01-14 22:57:00,
2013-01-14 18:00:00,74.8,57.6,30.11,SE,144,2.0,6.0,55,0.00,,,0.00,VWS V14.01,2013-01-14 23:00:00,
2013-01-14 18:07:00,74.0,56.8,30.11,SE,144,1.0,5.0,55,0.00,,,0.00,VWS V14.01,2013-01-14 23:07:00,
2013-01-14 18:10:00,74.0,56.8,30.11,SE,144,1.0,5.0,55,0.00,,,0.00,VWS V14.01,2013-01-14 23:10:00,
2013-01-14 18:17:00,73.4,56.3,30.11,SE,144,2.0,5.0,55,0.00,,,0.00,VWS V14.01,2013-01-14 23:17:00,
2013-01-14 18:20:00,73.4,56.3,30.11,SE,144,2.0,5.0,55,0.00,,,0.00,VWS V14.01,2013-01-14 23:20:00,
2013-01-14 18:27:00,72.7,55.1,30.11,SE,144,1.0,5.0,54,0.00,,,0.00,VWS V14.01,2013-01-14 23:27:00,
2013-01-14 18:30:00,72.7,55.1,30.11,SE,144,1.0,5.0,54,0.00,,,0.00,VWS V14.01,2013-01-14 23:30:00,
2013-01-14 18:38:00,72.1,55.1,30.12,SE,144,0.0,4.0,55,0.00,,,0.00,VWS V14.01,2013-01-14 23:38:00,
2013-01-14 18:40:00,72.1,55.1,30.12,SE,144,0.0,4.0,55,0.00,,,0.00,VWS V14.01,2013-01-14 23:40:00,
2013-01-14 18:47:00,71.3,54.3,30.12,SE,144,0.0,1.0,55,0.00,,,0.00,VWS V14.01,2013-01-14 23:47:00,
2013-01-14 18:50:00,71.3,54.3,30.12,SE,144,0.0,1.0,55,0.00,,,0.00,VWS V14.01,2013-01-14 23:50:00,
2013-01-14 18:57:00,70.4,54.0,30.12,SE,144,0.0,0.0,56,0.00,,,0.00,VWS V14.01,2013-01-14 23:57:00,
2013-01-14 19:00:00,70.4,54.0,30.12,SE,144,0.0,0.0,56,0.00,,,0.00,VWS V14.01,2013-01-15 00:00:00,
2013-01-14 19:07:00,69.5,53.6,30.12,SE,144,0.0,0.0,57,0.00,,,0.00,VWS V14.01,2013-01-15 00:07:00,
2013-01-14 19:10:00,69.5,53.6,30.12,SE,144,0.0,0.0,57,0.00,,,0.00,VWS V14.01,2013-01-15 00:10:00,
2013-01-14 19:17:00,68.8,53.4,30.12,SE,144,0.0,4.0,58,0.00,,,0.00,VWS V14.01,2013-01-15 00:17:00,
2013-01-14 19:20:00,68.8,53.4,30.12,SE,144,0.0,4.0,58,0.00,,,0.00,VWS V14.01,2013-01-15 00:20:00,
2013-01-14 19:27:00,68.8,53.9,30.12,SE,144,0.0,4.0,59,0.00,,,0.00,VWS V14.01,2013-01-15 00:27:00,
2013-01-14 19:30:00,68.8,53.9,30.12,SE,144,0.0,4.0,59,0.00,,,0.00,VWS V14.01,2013-01-15 00:30:00,
2013-01-14 19:37:00,68.6,53.7,30.12,SE,144,0.0,1.0,59,0.00,,,0.00,VWS V14.01,2013-01-15 00:37:00,
2013-01-14 19:40:00,68.6,53.7,30.12,SE,144,0.0,1.0,59,0.00,,,0.00,VWS V14.01,2013-01-15 00:40:00,
2013-01-14 19:47:00,68.1,53.7,30.12,SE,144,0.0,0.0,60,0.00,,,0.00,VWS V14.01,2013-01-15 00:47:00,
2013-01-14 19:50:00,68.1,53.7,30.12,SE,144,0.0,0.0,60,0.00,,,0.00,VWS V14.01,2013-01-15 00:50:00,
2013-01-14 19:57:00,67.5,53.1,30.12,SE,144,0.0,0.0,60,0.00,,,0.00,VWS V14.01,2013-01-15 00:57:00,
2013-01-14 20:00:00,67.5,53.1,30.12,SE,144,0.0,0.0,60,0.00,,,0.00,VWS V14.01,2013-01-15 01:00:00,
2013-01-14 20:07:00,66.8,52.9,30.12,SE,144,0.0,0.0,61,0.00,,,0.00,VWS V14.01,2013-01-15 01:07:00,
2013-01-14 20:10:00,66.8,52.9,30.12,SE,144,0.0,0.0,61,0.00,,,0.00,VWS V14.01,2013-01-15 01:10:00,
2013-01-14 20:17:00,66.3,52.9,30.11,SE,144,0.0,0.0,62,0.00,,,0.00,VWS V14.01,2013-01-15 01:17:00,
2013-01-14 20:20:00,66.3,52.9,30.11,SE,144,0.0,0.0,62,0.00,,,0.00,VWS V14.01,2013-01-15 01:20:00,
2013-01-14 20:27:00,65.9,53.0,30.11,SE,144,0.0,2.0,63,0.00,,,0.00,VWS V14.01,2013-01-15 01:27:00,
2013-01-14 20:30:00,65.9,53.0,30.11,SE,144,0.0,2.0,63,0.00,,,0.00,VWS V14.01,2013-01-15 01:30:00,
2013-01-14 20:37:00,65.9,53.4,30.11,SE,144,1.0,2.0,64,0.00,,,0.00,VWS V14.01,2013-01-15 01:37:00,
2013-01-14 20:40:00,65.9,53.4,30.11,SE,144,1.0,2.0,64,0.00,,,0.00,VWS V14.01,2013-01-15 01:40:00,
2013-01-14 20:47:00,66.0,53.5,30.11,SE,144,0.0,4.0,64,0.00,,,0.00,VWS V14.01,2013-01-15 01:47:00,
2013-01-14 20:50:00,66.0,53.5,30.11,SE,144,0.0,4.0,64,0.00,,,0.00,VWS V14.01,2013-01-15 01:50:00,
2013-01-14 20:57:00,66.6,54.5,30.12,SE,144,1.0,5.0,65,0.00,,,0.00,VWS V14.01,2013-01-15 01:57:00,
2013-01-14 21:00:00,66.6,54.5,30.12,SE,144,1.0,5.0,65,0.00,,,0.00,VWS V14.01,2013-01-15 02:00:00,
2013-01-14 21:07:00,67.7,55.5,30.12,SE,143,2.0,7.0,65,0.00,,,0.00,VWS V14.01,2013-01-15 02:07:00,
2013-01-14 21:10:00,67.7,55.5,30.12,SE,143,2.0,7.0,65,0.00,,,0.00,VWS V14.01,2013-01-15 02:10:00,
2013-01-14 21:17:00,68.8,57.0,30.12,SE,127,4.0,8.0,66,0.00,,,0.00,VWS V14.01,2013-01-15 02:17:00,
2013-01-14 21:20:00,68.8,57.0,30.12,SE,127,4.0,8.0,66,0.00,,,0.00,VWS V14.01,2013-01-15 02:20:00,
2013-01-14 21:27:00,69.3,57.0,30.12,SE,124,2.0,9.0,65,0.00,,,0.00,VWS V14.01,2013-01-15 02:27:00,
2013-01-14 21:30:00,69.3,57.0,30.12,SE,124,2.0,9.0,65,0.00,,,0.00,VWS V14.01,2013-01-15 02:30:00,
2013-01-14 21:37:00,69.4,57.6,30.12,SE,127,4.0,9.0,66,0.00,,,0.00,VWS V14.01,2013-01-15 02:37:00,
2013-01-14 21:40:00,69.4,57.6,30.12,SE,127,4.0,9.0,66,0.00,,,0.00,VWS V14.01,2013-01-15 02:40:00,
2013-01-14 21:47:00,69.2,57.4,30.12,SE,127,0.0,7.0,66,0.00,,,0.00,VWS V14.01,2013-01-15 02:47:00,
2013-01-14 21:50:00,69.2,57.4,30.12,SE,127,0.0,7.0,66,0.00,,,0.00,VWS V14.01,2013-01-15 02:50:00,
2013-01-14 21:57:00,68.8,57.0,30.13,SE,127,6.0,6.0,66,0.00,,,0.00,VWS V14.01,2013-01-15 02:57:00,
2013-01-14 22:00:00,68.8,57.0,30.13,SE,127,6.0,6.0,66,0.00,,,0.00,VWS V14.01,2013-01-15 03:00:00,
2013-01-14 22:08:00,68.8,57.4,30.12,SE,127,2.0,7.0,67,0.00,,,0.00,VWS V14.01,2013-01-15 03:08:00,
2013-01-14 22:10:00,68.8,57.4,30.12,SE,127,2.0,7.0,67,0.00,,,0.00,VWS V14.01,2013-01-15 03:10:00,
2013-01-14 22:17:00,68.8,57.4,30.12,SE,127,4.0,9.0,67,0.00,,,0.00,VWS V14.01,2013-01-15 03:17:00,
2013-01-14 22:20:00,68.8,57.4,30.12,SE,127,4.0,9.0,67,0.00,,,0.00,VWS V14.01,2013-01-15 03:20:00,
2013-01-14 22:27:00,68.6,57.2,30.12,SE,131,4.0,8.0,67,0.00,,,0.00,VWS V14.01,2013-01-15 03:27:00,
2013-01-14 22:30:00,68.6,57.2,30.12,SE,131,4.0,8.0,67,0.00,,,0.00,VWS V14.01,2013-01-15 03:30:00,
2013-01-14 22:37:00,68.5,57.5,30.12,SE,131,4.0,8.0,68,0.00,,,0.00,VWS V14.01,2013-01-15 03:37:00,
2013-01-14 22:40:00,68.5,57.5,30.12,SE,131,4.0,8.0,68,0.00,,,0.00,VWS V14.01,2013-01-15 03:40:00,
2013-01-14 22:47:00,68.2,57.2,30.12,SE,131,2.0,7.0,68,0.00,,,0.00,VWS V14.01,2013-01-15 03:47:00,
2013-01-14 22:50:00,68.2,57.2,30.12,SE,131,2.0,7.0,68,0.00,,,0.00,VWS V14.01,2013-01-15 03:50:00,
2013-01-14 22:57:00,67.9,57.0,30.12,SE,138,5.0,6.0,68,0.00,,,0.00,VWS V14.01,2013-01-15 03:57:00,
2013-01-14 23:00:00,67.9,57.0,30.12,SE,138,5.0,6.0,68,0.00,,,0.00,VWS V14.01,2013-01-15 04:00:00,
2013-01-14 23:07:00,67.7,57.2,30.12,SE,136,5.0,9.0,69,0.00,,,0.00,VWS V14.01,2013-01-15 04:07:00,
2013-01-14 23:10:00,67.7,57.2,30.12,SE,136,5.0,9.0,69,0.00,,,0.00,VWS V14.01,2013-01-15 04:10:00,
2013-01-14 23:17:00,67.5,57.0,30.12,SE,136,5.0,8.0,69,0.00,,,0.00,VWS V14.01,2013-01-15 04:17:00,
2013-01-14 23:20:00,67.5,57.0,30.12,SE,136,5.0,8.0,69,0.00,,,0.00,VWS V14.01,2013-01-15 04:20:00,
2013-01-14 23:27:00,67.3,56.8,30.12,SE,138,4.0,7.0,69,0.00,,,0.00,VWS V14.01,2013-01-15 04:27:00,
2013-01-14 23:30:00,67.3,56.8,30.12,SE,138,4.0,7.0,69,0.00,,,0.00,VWS V14.01,2013-01-15 04:30:00,
2013-01-14 23:37:00,67.1,57.0,30.12,SE,138,1.0,7.0,70,0.00,,,0.00,VWS V14.01,2013-01-15 04:37:00,
2013-01-14 23:40:00,67.1,57.0,30.12,SE,138,1.0,7.0,70,0.00,,,0.00,VWS V14.01,2013-01-15 04:40:00,
2013-01-14 23:47:00,66.9,56.8,30.12,SE,138,4.0,6.0,70,0.00,,,0.00,VWS V14.01,2013-01-15 04:47:00,
2013-01-14 23:50:00,66.9,56.8,30.12,SE,138,4.0,6.0,70,0.00,,,0.00,VWS V14.01,2013-01-15 04:50:00,
2013-01-14 23:58:00,66.6,56.5,30.12,SE,138,5.0,7.0,70,0.00,,,0.00,VWS V14.01,2013-01-15 04:58:00,